Location: York
(31.8935°S, 116.7682°E)
Time: 15:25:41
(UTC+08:00)

deb Explorer IX - All Passes

Search period start: 25 September 2022 00:00
Search period end: 05 October 2022 00:00
Orbit: 530 x 1066 km, 38.8° (Epoch: 20 September)

Date Brightness Start Highest point End Pass type
(mag) Time Alt. Az. Time Alt. Az. Time Alt. Az.
25 Sep - 01:30:42 10° WSW 01:34:34 39° SSE 01:38:25 10° E night (unlit)
25 Sep - 03:16:52 10° WSW 03:20:53 61° NNW 03:25:06 10° NE visible
25 Sep - 05:05:27 10° NW 05:06:43 11° NW 05:08:01 10° NNW visible
25 Sep - 19:40:07 10° NNW 19:44:38 27° NE 19:48:40 10° E visible
25 Sep - 21:25:48 10° WNW 21:30:50 78° SSW 21:35:13 10° ESE visible
25 Sep - 23:13:20 10° WSW 23:17:26 34° S 23:21:13 10° ESE night (unlit)
26 Sep - 01:00:21 10° WSW 01:04:15 38° SSE 01:08:02 10° E night (unlit)
26 Sep - 02:46:34 10° WSW 02:50:35 67° NNW 02:54:44 10° NE night (unlit)
26 Sep - 04:34:47 10° WNW 04:36:24 12° NW 04:38:04 10° NNW visible
26 Sep - 19:09:38 10° NNW 19:14:14 26° NE 19:18:20 10° E visible
26 Sep - 20:55:13 10° WNW 21:00:28 84° SSW 21:05:00 10° ESE visible
26 Sep - 22:42:46 10° WSW 22:47:04 35° S 22:50:57 10° ESE night (unlit)
27 Sep - 00:29:56 10° WSW 00:33:54 37° S 00:37:41 10° E night (unlit)
27 Sep - 02:16:14 10° WSW 02:20:18 73° NNW 02:24:23 10° ENE night (unlit)
27 Sep - 04:04:10 10° WNW 04:06:05 13° NW 04:08:03 10° N visible
27 Sep - 18:39:09 10° NNW 18:43:49 24° NE 18:47:58 10° E visible
27 Sep - 20:24:35 10° WNW 20:30:04 90° SSW 20:34:45 10° ESE visible
27 Sep - 22:12:09 10° WSW 22:16:40 37° S 22:20:42 10° ESE visible
27 Sep - 23:59:28 10° WSW 00:03:33 36° S 00:07:20 10° ESE night (unlit)
28 Sep - 01:45:52 10° WSW 01:49:59 80° NNW 01:54:02 10° ENE night (unlit)
28 Sep - 03:33:35 10° WNW 03:35:46 14° NW 03:38:00 10° N night (unlit)
28 Sep - 18:08:39 10° NNW 18:13:21 23° NE 18:17:34 10° E daylight
28 Sep - 19:53:57 10° WNW 19:59:38 85° NNE 20:04:29 10° ESE visible
28 Sep - 21:41:30 10° W 21:46:16 39° S 21:50:27 10° ESE visible
28 Sep - 23:28:58 10° WSW 23:33:09 36° S 23:37:00 10° ESE night (unlit)
29 Sep - 01:15:28 10° WSW 01:19:40 87° NNW 01:23:42 10° ENE night (unlit)
29 Sep - 03:03:00 10° WNW 03:05:27 16° NW 03:07:55 10° N night (unlit)
29 Sep - 17:38:10 10° NNW 17:42:52 22° NE 17:47:08 10° E daylight
29 Sep - 19:23:17 10° WNW 19:29:11 80° NNE 19:34:12 10° ESE visible
29 Sep - 21:10:49 10° W 21:15:50 42° SSW 21:20:11 10° ESE visible
29 Sep - 22:58:25 10° WSW 23:02:46 36° S 23:06:41 10° ESE night (unlit)
30 Sep - 00:45:02 10° WSW 00:49:20 86° SSE 00:53:22 10° ENE night (unlit)
30 Sep - 02:32:25 10° W 02:35:08 17° NW 02:37:50 10° N night (unlit)
30 Sep - 17:07:41 10° N 17:12:22 21° NE 17:16:39 10° E daylight
30 Sep - 18:52:35 10° WNW 18:58:41 75° NNE 19:03:54 10° ESE visible
30 Sep - 20:40:06 10° W 20:45:21 44° SSW 20:49:54 10° ESE visible
30 Sep - 22:27:49 10° WSW 22:32:20 36° S 22:36:21 10° ESE visible
01 Oct - 00:14:32 10° WSW 00:18:59 80° SSE 00:23:03 10° ENE night (unlit)
01 Oct - 02:01:50 10° W 02:04:48 19° NW 02:07:42 10° N night (unlit)
01 Oct - 16:37:11 10° N 16:41:50 20° NE 16:46:08 10° E daylight
01 Oct - 18:21:53 10° NW 18:28:11 71° NNE 18:33:33 10° ESE daylight
01 Oct - 20:09:20 10° W 20:14:52 47° SSW 20:19:37 10° ESE visible
01 Oct - 21:57:10 10° WSW 22:01:53 37° S 22:06:01 10° ESE visible
01 Oct - 23:44:01 10° WSW 23:48:37 75° SSE 23:52:44 10° ENE night (unlit)
02 Oct - 01:31:14 10° W 01:34:28 22° NW 01:37:35 10° NNE night (unlit)
02 Oct - 16:06:44 10° N 16:11:17 19° NE 16:15:32 10° E daylight
02 Oct - 17:51:11 10° NW 17:57:37 67° NNE 18:03:11 10° ESE daylight
02 Oct - 19:38:33 10° W 19:44:21 50° SSW 19:49:18 10° ESE visible
02 Oct - 21:26:28 10° WSW 21:31:24 37° S 21:35:42 10° ESE visible
02 Oct - 23:13:27 10° WSW 23:18:13 70° SSE 23:22:25 10° ENE night (unlit)
03 Oct - 01:00:37 10° W 01:04:08 24° NW 01:07:27 10° NNE night (unlit)
03 Oct - 15:36:18 10° N 15:40:43 18° NE 15:44:54 10° E daylight
03 Oct - 17:20:28 10° NW 17:27:02 63° NNE 17:32:47 10° ESE daylight
03 Oct - 19:07:45 10° W 19:13:47 53° SSW 19:18:58 10° ESE visible
03 Oct - 20:55:44 10° WSW 21:00:54 38° S 21:05:22 10° ESE visible
03 Oct - 22:42:50 10° WSW 22:47:47 66° SSE 22:52:05 10° ENE visible
04 Oct - 00:29:58 10° W 00:33:46 27° NW 00:37:17 10° NNE night (unlit)
04 Oct - 15:05:53 10° N 15:10:07 17° NE 15:14:10 10° ENE daylight
04 Oct - 16:49:44 10° NW 16:56:26 60° NNE 17:02:21 10° ESE daylight
04 Oct - 18:36:56 10° W 18:43:12 56° SSW 18:48:37 10° ESE visible
04 Oct - 20:24:57 10° WSW 20:30:21 39° S 20:35:00 10° ESE visible
04 Oct - 22:12:11 10° WSW 22:17:19 63° SSE 22:21:44 10° E visible
